Time,TemperatureF,DewpointF,PressureIn,WindDirection,WindDirectionDegrees,WindSpeedMPH,WindSpeedGustMPH,Humidity,HourlyPrecipIn,Conditions,Clouds,dailyrainin,SoftwareType,DateUTC
2013-05-21 00:13:00,63.0,61.0,29.95,NE,53,0.0,-999.0,94,-99.99,,,0.00,weatherlink.com 1.10,2013-05-21 04:13:00,
2013-05-21 00:28:00,62.6,61.0,29.95,NE,53,0.0,-999.0,94,-99.99,,,0.00,weatherlink.com 1.10,2013-05-21 04:28:00,
2013-05-21 00:44:00,62.2,61.0,29.95,NE,53,0.0,-999.0,95,-99.99,,,0.00,weatherlink.com 1.10,2013-05-21 04:44:00,
2013-05-21 00:58:00,61.8,60.0,29.94,NE,53,0.0,-999.0,95,-99.99,,,0.00,weatherlink.com 1.10,2013-05-21 04:58:00,
2013-05-21 01:13:00,61.4,60.0,29.94,NE,53,0.0,-999.0,95,-99.99,,,0.00,weatherlink.com 1.10,2013-05-21 05:13:00,
2013-05-21 01:28:00,61.2,60.0,29.94,NE,53,0.0,-999.0,96,-99.99,,,0.00,weatherlink.com 1.10,2013-05-21 05:28:00,
2013-05-21 01:43:00,60.9,60.0,29.94,NE,53,0.0,-999.0,96,-99.99,,,0.00,weatherlink.com 1.10,2013-05-21 05:43:00,
2013-05-21 01:58:00,60.7,60.0,29.93,NE,53,0.0,-999.0,96,-99.99,,,0.00,weatherlink.com 1.10,2013-05-21 05:58:00,
2013-05-21 02:13:00,60.4,59.0,29.93,NE,53,0.0,-999.0,96,-99.99,,,0.00,weatherlink.com 1.10,2013-05-21 06:13:00,
2013-05-21 02:28:00,60.2,59.0,29.93,NE,53,0.0,-999.0,96,-99.99,,,0.00,weatherlink.com 1.10,2013-05-21 06:28:00,
2013-05-21 02:43:00,60.2,59.0,29.92,NE,53,0.0,-999.0,97,-99.99,,,0.00,weatherlink.com 1.10,2013-05-21 06:43:00,
2013-05-21 02:58:00,60.2,59.0,29.91,NE,53,0.0,-999.0,97,-99.99,,,0.00,weatherlink.com 1.10,2013-05-21 06:58:00,
2013-05-21 03:13:00,59.8,59.0,29.91,NE,53,0.0,-999.0,97,-99.99,,,0.00,weatherlink.com 1.10,2013-05-21 07:13:00,
2013-05-21 03:28:00,59.3,59.0,29.90,NE,53,0.0,-999.0,97,-99.99,,,0.00,weatherlink.com 1.10,2013-05-21 07:28:00,
2013-05-21 03:43:00,59.0,58.0,29.90,NE,53,0.0,-999.0,97,-99.99,,,0.00,weatherlink.com 1.10,2013-05-21 07:43:00,
2013-05-21 03:58:00,58.7,58.0,29.91,NE,53,0.0,-999.0,97,-99.99,,,0.00,weatherlink.com 1.10,2013-05-21 07:58:00,
2013-05-21 04:13:00,58.6,58.0,29.91,NE,53,0.0,-999.0,97,-99.99,,,0.00,weatherlink.com 1.10,2013-05-21 08:13:00,
2013-05-21 04:28:00,58.5,58.0,29.92,NE,53,0.0,-999.0,97,-99.99,,,0.00,weatherlink.com 1.10,2013-05-21 08:28:00,
2013-05-21 04:43:00,58.2,57.0,29.92,NE,53,0.0,-999.0,97,-99.99,,,0.00,weatherlink.com 1.10,2013-05-21 08:43:00,
2013-05-21 04:58:00,58.0,57.0,29.92,NE,53,0.0,-999.0,97,-99.99,,,0.00,weatherlink.com 1.10,2013-05-21 08:58:00,
2013-05-21 05:13:00,57.9,57.0,29.93,NE,53,0.0,-999.0,98,-99.99,,,0.00,weatherlink.com 1.10,2013-05-21 09:13:00,
2013-05-21 05:28:00,58.0,58.0,29.93,NE,53,0.0,-999.0,98,-99.99,,,0.00,weatherlink.com 1.10,2013-05-21 09:28:00,
2013-05-21 05:43:00,58.3,58.0,29.92,NE,53,0.0,-999.0,98,-99.99,,,0.00,weatherlink.com 1.10,2013-05-21 09:43:00,
2013-05-21 05:58:00,58.4,58.0,29.92,NE,53,0.0,-999.0,98,-99.99,,,0.00,weatherlink.com 1.10,2013-05-21 09:58:00,
2013-05-21 06:13:00,58.2,58.0,29.93,NE,53,0.0,-999.0,98,-99.99,,,0.00,weatherlink.com 1.10,2013-05-21 10:13:00,
2013-05-21 06:28:00,58.7,58.0,29.94,NE,53,0.0,-999.0,98,-99.99,,,0.00,weatherlink.com 1.10,2013-05-21 10:28:00,
2013-05-21 06:44:00,59.3,59.0,29.93,NE,53,0.0,-999.0,98,-99.99,,,0.00,weatherlink.com 1.10,2013-05-21 10:44:00,
2013-05-21 06:59:00,60.2,60.0,29.93,NE,53,0.0,-999.0,98,-99.99,,,0.00,weatherlink.com 1.10,2013-05-21 10:59:00,
2013-05-21 07:14:00,61.1,61.0,29.92,NE,53,0.0,-999.0,99,-99.99,,,0.00,weatherlink.com 1.10,2013-05-21 11:14:00,
2013-05-21 07:29:00,61.6,61.0,29.92,NW,312,1.0,-999.0,98,-99.99,,,0.00,weatherlink.com 1.10,2013-05-21 11:29:00,
2013-05-21 07:44:00,62.2,62.0,29.91,SSE,152,0.0,-999.0,98,-99.99,,,0.00,weatherlink.com 1.10,2013-05-21 11:44:00,
2013-05-21 07:59:00,62.0,61.0,29.92,WSW,248,0.0,-999.0,96,-99.99,,,0.00,weatherlink.com 1.10,2013-05-21 11:59:00,
2013-05-21 08:14:00,61.7,60.0,29.93,NNW,327,0.0,-999.0,95,-99.99,,,0.00,weatherlink.com 1.10,2013-05-21 12:14:00,
2013-05-21 08:29:00,61.8,61.0,29.93,NNW,327,2.0,-999.0,96,-99.99,,,0.00,weatherlink.com 1.10,2013-05-21 12:29:00,
2013-05-21 08:44:00,61.9,61.0,29.93,NNE,24,0.0,-999.0,95,-99.99,,,0.00,weatherlink.com 1.10,2013-05-21 12:44:00,
2013-05-21 08:59:00,62.0,61.0,29.93,NNE,24,0.0,-999.0,95,-99.99,,,0.00,weatherlink.com 1.10,2013-05-21 12:59:00,
2013-05-21 09:14:00,62.2,61.0,29.92,NNE,22,0.0,-999.0,95,-99.99,,,0.00,weatherlink.com 1.10,2013-05-21 13:14:00,
2013-05-21 09:29:00,63.2,61.0,29.92,NNE,22,0.0,-999.0,93,-99.99,,,0.00,weatherlink.com 1.10,2013-05-21 13:29:00,
2013-05-21 09:44:00,64.0,61.0,29.91,NNE,22,0.0,-999.0,91,-99.99,,,0.00,weatherlink.com 1.10,2013-05-21 13:44:00,
2013-05-21 09:59:00,65.0,62.0,29.91,NNE,22,1.0,-999.0,90,-99.99,,,0.00,weatherlink.com 1.10,2013-05-21 13:59:00,
2013-05-21 10:14:00,66.1,62.0,29.91,NNE,22,0.0,-999.0,86,-99.99,,,0.00,weatherlink.com 1.10,2013-05-21 14:14:00,
2013-05-21 10:29:00,67.7,63.0,29.89,NNE,23,0.0,-999.0,86,-99.99,,,0.00,weatherlink.com 1.10,2013-05-21 14:29:00,
2013-05-21 10:44:00,69.7,65.0,29.88,WSW,244,1.0,-999.0,84,-99.99,,,0.00,weatherlink.com 1.10,2013-05-21 14:44:00,
2013-05-21 10:59:00,69.4,63.0,29.90,NE,42,0.0,-999.0,81,-99.99,,,0.00,weatherlink.com 1.10,2013-05-21 14:59:00,
2013-05-21 11:14:00,68.4,64.0,29.89,NNE,24,0.0,-999.0,85,-99.99,,,0.01,weatherlink.com 1.10,2013-05-21 15:14:00,
2013-05-21 11:30:00,67.8,64.0,29.89,NNE,30,0.0,-999.0,88,-99.99,,,0.01,weatherlink.com 1.10,2013-05-21 15:30:00,
2013-05-21 11:45:00,69.9,64.0,29.88,NNE,21,2.0,-999.0,82,-99.99,,,0.01,weatherlink.com 1.10,2013-05-21 15:45:00,
2013-05-21 12:00:00,71.2,65.0,29.87,NNE,32,0.0,-999.0,80,-99.99,,,0.01,weatherlink.com 1.10,2013-05-21 16:00:00,
2013-05-21 12:15:00,73.4,66.0,29.86,ENE,70,0.0,-999.0,78,-99.99,,,0.01,weatherlink.com 1.10,2013-05-21 16:15:00,
2013-05-21 12:30:00,74.2,66.0,29.86,NNE,32,2.0,-999.0,75,-99.99,,,0.01,weatherlink.com 1.10,2013-05-21 16:30:00,
2013-05-21 12:45:00,74.5,66.0,29.86,North,10,1.0,-999.0,74,-99.99,,,0.01,weatherlink.com 1.10,2013-05-21 16:45:00,
2013-05-21 13:00:00,75.6,66.0,29.86,North,360,0.0,-999.0,73,-99.99,,,0.01,weatherlink.com 1.10,2013-05-21 17:00:00,
2013-05-21 13:15:00,75.7,66.0,29.85,NE,36,1.0,-999.0,72,-99.99,,,0.01,weatherlink.com 1.10,2013-05-21 17:15:00,
2013-05-21 13:30:00,76.4,66.0,29.85,NE,42,0.0,-999.0,71,-99.99,,,0.01,weatherlink.com 1.10,2013-05-21 17:30:00,
2013-05-21 13:45:00,77.3,67.0,29.85,NNE,19,1.0,-999.0,70,-99.99,,,0.01,weatherlink.com 1.10,2013-05-21 17:45:00,
2013-05-21 14:00:00,77.0,67.0,29.85,North,5,3.0,-999.0,70,-99.99,,,0.01,weatherlink.com 1.10,2013-05-21 18:00:00,
2013-05-21 14:15:00,74.9,65.0,29.86,NNE,22,3.0,-999.0,71,-99.99,,,0.01,weatherlink.com 1.10,2013-05-21 18:15:00,
2013-05-21 14:30:00,73.8,64.0,29.86,East,86,0.0,-999.0,71,-99.99,,,0.01,weatherlink.com 1.10,2013-05-21 18:30:00,
2013-05-21 14:45:00,70.6,61.0,29.87,NE,35,0.0,-999.0,72,-99.99,,,0.01,weatherlink.com 1.10,2013-05-21 18:45:00,
2013-05-21 15:00:00,67.4,59.0,29.87,NE,34,0.0,-999.0,75,-99.99,,,0.01,weatherlink.com 1.10,2013-05-21 19:00:00,
2013-05-21 15:15:00,67.1,58.0,29.87,ENE,76,0.0,-999.0,73,-99.99,,,0.01,weatherlink.com 1.10,2013-05-21 19:15:00,
2013-05-21 15:30:00,66.3,59.0,29.89,ESE,121,0.0,-999.0,76,-99.99,,,0.01,weatherlink.com 1.10,2013-05-21 19:30:00,
2013-05-21 15:45:00,63.6,57.0,29.89,NE,49,0.0,-999.0,79,-99.99,,,0.01,weatherlink.com 1.10,2013-05-21 19:45:00,
2013-05-21 16:00:00,62.9,56.0,29.89,North,360,0.0,-999.0,77,-99.99,,,0.01,weatherlink.com 1.10,2013-05-21 20:00:00,
2013-05-21 16:15:00,60.2,54.0,29.89,NNE,24,0.0,-999.0,81,-99.99,,,0.01,weatherlink.com 1.10,2013-05-21 20:15:00,
2013-05-21 16:30:00,58.7,54.0,29.90,NE,49,2.0,-999.0,85,-99.99,,,0.01,weatherlink.com 1.10,2013-05-21 20:30:00,
2013-05-21 16:45:00,58.2,54.0,29.91,NNE,15,3.0,-999.0,85,-99.99,,,0.01,weatherlink.com 1.10,2013-05-21 20:45:00,
2013-05-21 17:00:00,56.5,52.0,29.92,NE,50,0.0,-999.0,86,-99.99,,,0.01,weatherlink.com 1.10,2013-05-21 21:00:00,
2013-05-21 17:15:00,55.4,52.0,29.92,NE,34,0.0,-999.0,87,-99.99,,,0.01,weatherlink.com 1.10,2013-05-21 21:15:00,
2013-05-21 17:30:00,54.9,52.0,29.93,NE,47,2.0,-999.0,88,-99.99,,,0.01,weatherlink.com 1.10,2013-05-21 21:30:00,
2013-05-21 17:45:00,54.2,51.0,29.93,NE,39,2.0,-999.0,89,-99.99,,,0.01,weatherlink.com 1.10,2013-05-21 21:45:00,
2013-05-21 18:00:00,53.9,51.0,29.95,North,351,0.0,-999.0,89,-99.99,,,0.01,weatherlink.com 1.10,2013-05-21 22:00:00,
2013-05-21 18:15:00,53.5,51.0,29.96,SE,127,0.0,-999.0,90,-99.99,,,0.01,weatherlink.com 1.10,2013-05-21 22:15:00,
2013-05-21 18:30:00,53.2,50.0,29.97,ENE,61,4.0,-999.0,89,-99.99,,,0.01,weatherlink.com 1.10,2013-05-21 22:30:00,
2013-05-21 18:45:00,52.8,50.0,29.99,NE,37,0.0,-999.0,90,-99.99,,,0.01,weatherlink.com 1.10,2013-05-21 22:45:00,
2013-05-21 19:00:00,52.6,50.0,29.99,NNE,27,2.0,-999.0,90,-99.99,,,0.01,weatherlink.com 1.10,2013-05-21 23:00:00,
2013-05-21 19:15:00,52.4,50.0,29.99,NE,38,4.0,-999.0,90,-99.99,,,0.01,weatherlink.com 1.10,2013-05-21 23:15:00,
2013-05-21 19:30:00,52.2,49.0,29.98,NW,317,2.0,-999.0,90,-99.99,,,0.01,weatherlink.com 1.10,2013-05-21 23:30:00,
2013-05-21 19:45:00,52.1,50.0,29.97,NE,38,0.0,-999.0,91,-99.99,,,0.01,weatherlink.com 1.10,2013-05-21 23:45:00,
2013-05-21 20:00:00,51.8,49.0,29.98,NE,43,0.0,-999.0,91,-99.99,,,0.01,weatherlink.com 1.10,2013-05-22 00:00:00,
2013-05-21 20:15:00,51.7,49.0,29.97,ENE,61,0.0,-999.0,91,-99.99,,,0.01,weatherlink.com 1.10,2013-05-22 00:15:00,
2013-05-21 20:30:00,51.8,49.0,29.98,NNE,15,0.0,-999.0,91,-99.99,,,0.01,weatherlink.com 1.10,2013-05-22 00:30:00,
2013-05-21 20:46:00,51.5,49.0,29.98,NNE,20,0.0,-999.0,91,-99.99,,,0.01,weatherlink.com 1.10,2013-05-22 00:46:00,
2013-05-21 21:01:00,51.3,49.0,29.97,NNE,28,1.0,-999.0,91,-99.99,,,0.01,weatherlink.com 1.10,2013-05-22 01:01:00,
2013-05-21 21:16:00,51.2,49.0,29.97,NE,51,1.0,-999.0,91,-99.99,,,0.01,weatherlink.com 1.10,2013-05-22 01:16:00,
2013-05-21 21:31:00,51.1,49.0,29.96,NNE,30,2.0,-999.0,92,-99.99,,,0.01,weatherlink.com 1.10,2013-05-22 01:31:00,
2013-05-21 21:46:00,51.0,49.0,29.96,NE,35,0.0,-999.0,93,-99.99,,,0.01,weatherlink.com 1.10,2013-05-22 01:46:00,
2013-05-21 22:01:00,50.8,49.0,29.97,NE,36,1.0,-999.0,93,-99.99,,,0.01,weatherlink.com 1.10,2013-05-22 02:01:00,
2013-05-21 22:16:00,50.7,49.0,29.97,NNW,332,0.0,-999.0,94,-99.99,,,0.01,weatherlink.com 1.10,2013-05-22 02:16:00,
2013-05-21 22:31:00,50.5,49.0,29.95,NE,44,0.0,-999.0,94,-99.99,,,0.01,weatherlink.com 1.10,2013-05-22 02:31:00,
2013-05-21 22:46:00,50.3,49.0,29.94,NNE,21,1.0,-999.0,95,-99.99,,,0.01,weatherlink.com 1.10,2013-05-22 02:46:00,
2013-05-21 23:01:00,50.4,49.0,29.98,NNW,340,4.0,-999.0,96,-99.99,,,0.01,weatherlink.com 1.10,2013-05-22 03:01:00,
2013-05-21 23:16:00,50.3,49.0,29.97,ENE,65,0.0,-999.0,95,-99.99,,,0.01,weatherlink.com 1.10,2013-05-22 03:16:00,
2013-05-21 23:31:00,50.5,49.0,30.00,NE,52,1.0,-999.0,96,-99.99,,,0.01,weatherlink.com 1.10,2013-05-22 03:31:00,
2013-05-21 23:46:00,50.2,49.0,30.01,NE,51,0.0,-999.0,96,-99.99,,,0.01,weatherlink.com 1.10,2013-05-22 03:46:00,